Stations météo

réclame
Mon MeteoGroup
Dax, France (7603): Température de l'air & dewpoint: 09.12.2018 12:00:00 - 15.12.2018 12:00:00 (CET)Dax, France (7603): Température de l'air 5cm: 09.12.2018 12:00:00 - 15.12.2018 12:00:00 (CET)Dax, France (7603): Température de l'air -20cm & Température de l'air -100cm: 09.12.2018 12:00:00 - 15.12.2018 12:00:00 (CET)Dax, France (7603): Vitesse du vent & gusts: 09.12.2018 12:00:00 - 15.12.2018 12:00:00 (CET)Dax, France (7603): Direction du vent: 09.12.2018 12:00:00 - 15.12.2018 12:00:00 (CET)Dax, France (7603): reduced air pressure: 09.12.2018 12:00:00 - 15.12.2018 12:00:00 (CET)Dax, France (7603): visibility: 09.12.2018 12:00:00 - 15.12.2018 12:00:00 (CET)Dax, France (7603): Ensoleillement: 09.12.2018 12:00:00 - 15.12.2018 12:00:00 (CET)Dax, France (7603): Quantités de précipitations: 09.12.2018 12:00:00 - 15.12.2018 12:00:00 (CET)
Date & Time tt [°C] td [°C] tt 5cm [°C] tt -20cm [°C] tt -100cm [°C] ff [km/h] ff [knt] fx [km/h] fx [knt] dd ppp [hPa] vv [km] sd [min] rr [mm]
15.12.2018 12:00:00 12,4 10,1 10,6 11,2 13,6 6 3 9 5 ESE 1019,6 22 14 0,0
15.12.2018 11:00:00 9,9 8,5 9,8 11,1 13,6 4 2 5 3 SSE 1020,4 14 0 0,0
15.12.2018 10:00:00 9,1 7,7 8,4 11,1 13,6 0 0 9 5 N 1020,4 14 0 0,0
15.12.2018 09:00:00 8,3 7,7 7,6 11,2 13,6 5 3 8 4 E 1020,0 12 0 0,0
15.12.2018 08:00:00 8,0 7,4 7,7 11,2 13,6 5 3 8 5 ESE 1020,0 14 0 0,0
15.12.2018 07:00:00 7,9 7,3 7,4 11,3 13,6 6 4 9 5 E 1020,5 15 0 0,0
15.12.2018 06:00:00 8,1 7,2 7,3 11,3 13,6 8 4 10 6 SE 1020,4 22 0 0,0
15.12.2018 05:00:00 8,0 7,4 6,5 11,4 13,6 4 2 9 5 SE 1021,1 19 0 0,0
15.12.2018 04:00:00 7,4 7,0 6,4 11,4 13,6 6 3 10 5 SE 1021,3 13 0 0,0
15.12.2018 03:00:00 7,9 7,6 6,0 11,5 13,6 7 4 10 6 S 1021,9 9 0 0,0
15.12.2018 02:00:00 8,1 8,0 5,7 11,5 13,6 5 3 9 5 S 1022,3 5 0 0,0
15.12.2018 01:00:00 7,9 7,6 5,8 11,6 13,6 7 4 9 5 SSE 1022,4 1,2 0 0,0
15.12.2018 00:00:00 8,3 7,9 6,5 11,6 13,6 6 3 9 5 SSE 1022,9 2,6 0 0,0
14.12.2018 23:00:00 9,5 9,2 8,7 11,6 13,6 7 4 11 6 S 1023,3 2,7 0 0,0
14.12.2018 22:00:00 9,5 9,0 8,9 11,6 13,6 5 3 7 4 S 1023,5 4,0 0 0,0
14.12.2018 21:00:00 9,6 9,0 9,2 11,6 13,6 5 3 7 4 S 1023,5 4,2 0 0,0
14.12.2018 20:00:00 9,9 8,7 9,5 11,6 13,6 5 3 7 4 S 1023,6 7 0 0,0
14.12.2018 19:00:00 10,2 8,3 9,7 11,6 13,7 3 2 11 6 N 1023,1 9 0 0,0
14.12.2018 18:00:00 10,6 8,5 9,7 11,5 13,6 4 2 8 5 NNW 1022,7 10 0 0,0
14.12.2018 17:00:00 11,1 8,1 10,8 11,4 13,6 4 2 17 9 W 1022,0 15 0 0,0
14.12.2018 16:00:00 12,0 7,9 12,3 11,4 13,7 11 6 22 12 NNW 1021,8 21 13 0,0
14.12.2018 15:00:00 12,0 8,5 12,4 11,3 13,6 10 5 19 10 NW 1021,1 14 12 0,0
14.12.2018 14:00:00 12,1 8,2 12,1 11,2 13,7 14 8 25 13 NW 1020,5 13 15 0,0
14.12.2018 13:00:00 11,8 9,2 11,2 11,2 13,7 8 5 19 10 WNW 1020,4 7 14 0,0
14.12.2018 12:00:00 11,5 9,1 11,3 11,2 13,7 6 3 13 7 WNW 1020,2 9 28 0,0
14.12.2018 11:00:00 10,2 9,7 10,0 11,2 13,7 2 1 7 4 NNW 1019,9 8 24 0,0
14.12.2018 10:00:00 9,5 9,2 7,4 11,2 13,7 0 0 4 2 N 1018,6 4,9 21 0,0
14.12.2018 09:00:00 8,1 7,7 6,4 11,3 13,7 2 1 8 4 S 1017,7 1,4 0 0,2
14.12.2018 08:00:00 9,4 9,1 7,9 11,3 13,7 3 2 6 3 ENE 1016,6 2,0 0 0,4
14.12.2018 07:00:00 9,6 9,1 8,7 11,2 13,7 0 0 9 5 N 1015,7 5 0 0,0
14.12.2018 06:00:00 10,1 9,6 9,5 11,3 13,7 3 2 12 6 N 1014,9 5 0 0,0
14.12.2018 05:00:00 10,3 9,8 9,7 11,3 13,7 6 3 12 7 W 1014,3 6 0 3,6
14.12.2018 04:00:00 10,1 9,6 9,7 11,3 13,7 3 2 18 10 WNW 1014,1 1,4 0 3,7
14.12.2018 03:00:00 10,2 9,9 9,2 11,3 13,8 6 3 13 7 W 1013,8 4,5 0 0,6
14.12.2018 02:00:00 9,8 9,5 8,5 11,3 13,7 4 2 9 5 W 1013,5 3,3 0 0,0
14.12.2018 01:00:00 9,8 9,2 9,0 11,3 13,8 2 1 6 3 W 1013,1 4,2 0 0,0
14.12.2018 00:00:00 10,3 9,5 9,6 11,3 13,7 4 2 25 14 WNW 1012,6 8 0 0,2
13.12.2018 23:00:00 10,6 9,8 10,0 11,3 13,8 11 6 24 13 NW 1011,9 1,2 0 0,8
13.12.2018 22:00:00 10,6 10,0 9,7 11,3 13,8 7 4 12 7 WSW 1011,1 6 0 0,0
13.12.2018 21:00:00 10,2 9,7 9,8 11,3 13,8 6 3 10 5 WSW 1010,5 6 0 0,0
13.12.2018 20:00:00 10,3 9,7 9,7 11,3 13,8 5 3 17 9 WNW 1009,8 6 0 0,5
13.12.2018 19:00:00 10,3 9,5 9,5 11,3 13,8 10 6 40 21 WNW 1009,0 3,6 0 1,0
13.12.2018 18:00:00 10,5 9,6 9,7 11,3 13,8 11 6 32 17 WNW 1008,1 3,3 0 1,2
13.12.2018 17:00:00 10,4 9,2 9,7 11,3 13,8 16 9 40 22 WNW 1007,2 3,0 0 1,0
13.12.2018 16:00:00 10,8 9,6 9,9 11,2 13,8 16 9 38 21 WNW 1006,2 1,5 0 1,4
13.12.2018 15:00:00 10,4 9,6 9,6 11,2 13,8 18 10 41 22 W 1005,3 1,2 0 5,6
13.12.2018 14:00:00 10,4 9,6 10,1 11,2 13,8 13 7 37 20 NW 1004,6 1,5 0 3,3
13.12.2018 13:00:00 11,0 10,7 9,0 11,3 13,8 13 7 26 14 SW 1004,2 1,2 0 3,0
13.12.2018 12:00:00 9,1 8,8 8,8 11,3 13,8 9 5 12 6 ESE 1005,3 1,5 0 1,0
13.12.2018 11:00:00 8,9 8,6 8,4 11,3 13,8 5 3 11 6 E 1005,6 3,0 0 0,2
13.12.2018 10:00:00 8,5 8,2 7,9 11,3 13,8 7 4 15 8 ESE 1005,3 3,0 0 0,8
13.12.2018 09:00:00 8,1 7,8 7,6 11,3 13,8 7 4 10 5 ESE 1005,5 3,0 0 1,7
13.12.2018 08:00:00 7,9 7,5 7,5 11,4 13,8 6 4 13 7 ESE 1005,7 3,0 0 1,2
13.12.2018 07:00:00 7,9 7,1 7,5 11,4 13,8 5 3 8 4 ESE 1006,4 3,0 0 3,4
13.12.2018 06:00:00 8,2 7,0 7,5 11,4 13,8 5 3 9 5 ESE 1006,9 3,8 0 1,2
13.12.2018 05:00:00 8,7 6,8 8,2 11,5 13,8 6 3 15 8 ESE 1007,6 10 0 0,0
13.12.2018 04:00:00 8,5 7,0 7,6 11,5 13,8 7 4 16 8 E 1008,3 10 0 0,0
13.12.2018 03:00:00 8,5 7,3 7,2 11,5 13,9 6 3 12 6 E 1009,0 9 0 0,0
13.12.2018 02:00:00 8,6 7,2 8,1 11,5 13,9 6 3 11 6 ESE 1009,8 8 0 0,0
13.12.2018 01:00:00 8,8 8,0 8,2 11,6 13,9 4 2 13 7 ESE 1011,1 6 0 0,0
13.12.2018 00:00:00 8,8 7,9 8,2 11,6 13,9 5 3 11 6 ESE 1011,9 7 0 0,0
12.12.2018 23:00:00 9,1 8,0 8,8 11,6 13,9 7 4 16 9 SE 1012,4 6 0 0,0
12.12.2018 22:00:00 9,4 8,5 7,4 11,6 13,9 8 4 14 8 E 1013,4 6 0 0,0
12.12.2018 21:00:00 9,5 7,8 8,4 11,6 13,9 4 2 13 7 ESE 1014,5 7 0 0,0
12.12.2018 20:00:00 10,4 8,2 9,2 11,6 13,9 3 2 8 5 ESE 1015,8 7 0 0,0
12.12.2018 19:00:00 10,2 8,1 9,2 11,6 13,9 4 2 11 6 S 1016,5 8 0 0,0
12.12.2018 18:00:00 11,3 8,0 10,3 11,5 13,9 4 2 6 4 S 1017,1 10 0 0,0
12.12.2018 17:00:00 11,8 7,7 11,4 11,4 13,9 3 1 11 6 WSW 1017,6 10 0 0,0
12.12.2018 16:00:00 12,7 8,0 12,7 11,4 13,9 12 6 18 10 WSW 1017,9 10 0 0,0
12.12.2018 15:00:00 13,2 7,2 13,6 11,3 13,9 8 4 18 10 W 1018,2 13 0 0,0
12.12.2018 14:00:00 13,4 7,8 13,8 11,1 13,9 8 5 19 11 W 1018,9 14 0 0,0
12.12.2018 13:00:00 13,6 7,8 14,4 11,1 13,9 12 7 22 12 W 1019,9 13 0 0,0
12.12.2018 12:00:00 13,5 8,8 12,9 11,0 14,0 9 5 21 12 W 1020,7 10 33 0,0
12.12.2018 11:00:00 12,7 9,9 10,9 11,0 14,0 8 4 13 7 WSW 1021,3 7 6 0,0
12.12.2018 10:00:00 11,5 9,4 10,2 10,9 14,0 5 3 10 6 WSW 1021,3 8 15 0,0
12.12.2018 09:00:00 11,3 10,4 10,7 10,9 13,9 4 2 14 8 W 1021,4 6 0 0,0
12.12.2018 08:00:00 11,6 10,8 11,0 10,9 13,9 9 5 21 12 WNW 1020,9 6 0 0,2
12.12.2018 07:00:00 11,7 11,5 10,0 10,9 14,0 11 6 26 14 WNW 1020,7 3,3 0 0,2
12.12.2018 06:00:00 9,9 9,7 5,5 10,9 14,0 10 5 22 12 SW 1020,3 2,6 0 0,4
12.12.2018 05:00:00 5,6 5,0 5,0 11,0 14,0 3 2 5 3 SE 1020,8 4,2 0 0,0
12.12.2018 04:00:00 4,8 4,5 3,1 11,1 14,0 0 0 4 2 N 1021,5 6 0 0,0
12.12.2018 03:00:00 2,9 2,5 0,9 11,2 14,0 2 1 5 3 ESE 1021,6 6 0 0,0
12.12.2018 02:00:00 2,2 1,6 0,7 11,3 14,0 3 2 5 3 SE 1021,7 4,0 0 0,0
12.12.2018 01:00:00 2,7 2,0 1,8 11,4 14,0 0 0 5 3 N 1021,7 3,4 0 0,0
12.12.2018 00:00:00 2,7 1,7 1,3 11,4 14,0 0 0 6 3 N 1021,7 4,5 0 0,0
11.12.2018 23:00:00 4,2 3,2 2,9 11,5 14,0 0 0 4 2 N 1021,6 3,2 0 0,0
11.12.2018 22:00:00 5,1 3,8 3,3 11,6 14,0 2 1 5 3 N 1021,0 5 0 0,0
11.12.2018 21:00:00 6,4 3,9 4,9 11,7 14,0 2 1 8 4 NNE 1020,9 7 0 0,0
11.12.2018 20:00:00 7,4 4,2 5,9 11,7 14,0 2 1 14 7 NE 1020,8 3,9 0 0,0
11.12.2018 19:00:00 8,8 4,2 7,1 11,7 14,0 10 5 16 9 ENE 1020,3 12 0 0,0
11.12.2018 18:00:00 10,3 4,4 7,6 11,7 14,0 8 5 12 7 ENE 1020,5 14 0 0,0
11.12.2018 17:00:00 10,8 4,5 9,8 11,7 14,0 7 4 19 10 E 1020,6 16 28 0,0
11.12.2018 16:00:00 11,6 5,0 11,8 11,6 14,0 13 7 23 12 E 1020,3 16 30 0,0
11.12.2018 15:00:00 12,3 4,8 13,4 11,5 14,0 12 6 26 14 E 1020,6 17 45 0,0
11.12.2018 14:00:00 12,2 5,8 12,5 11,5 14,0 15 8 28 15 E 1021,2 12 60 0,0
11.12.2018 13:00:00 10,9 5,4 10,6 11,5 14,1 19 10 26 14 E 1022,1 10 40 0,0
11.12.2018 12:00:00 9,5 6,6 9,2 11,5 14,0 12 6 - - E 1023,3 7 53 0,0
11.12.2018 11:00:00 6,4 6,3 4,9 11,6 14,1 - - - - - 1024,1 6 51 0,0
11.12.2018 10:00:00 3,9 3,8 3,1 11,7 14,0 - - - - - 1023,7 1,8 36 0,0
11.12.2018 09:00:00 2,9 2,8 2,1 11,8 14,1 - - - - - 1023,5 0,5 6 0,0
11.12.2018 08:00:00 2,6 2,5 1,4 11,9 14,1 - - - - - 1023,8 0,2 0 0,0
11.12.2018 07:00:00 2,5 2,4 1,6 11,9 14,1 - - - - - 1024,0 0,1 0 0,0
11.12.2018 06:00:00 3,3 3,2 2,6 12,0 14,1 - - - - - 1025,0 0,1 0 0,0
11.12.2018 05:00:00 3,3 3,2 2,7 12,1 14,1 - - - - - 1026,0 0,1 0 0,0
11.12.2018 04:00:00 3,4 3,1 2,9 12,2 14,0 - - - - - 1026,8 0,1 0 0,0
11.12.2018 03:00:00 4,1 3,8 3,1 12,3 14,1 - - - - - 1027,3 0,7 0 0,0
11.12.2018 02:00:00 5,3 4,9 3,6 12,4 14,0 - - - - - 1027,5 0,6 0 0,0
11.12.2018 01:00:00 6,3 5,9 4,6 12,5 14,1 - - - - - 1028,1 3,1 0 0,0
11.12.2018 00:00:00 7,1 6,4 6,2 12,6 14,1 - - - - - 1028,6 4,9 0 0,0
10.12.2018 23:00:00 7,7 6,8 5,8 12,6 14,1 - - - - - 1029,0 4,5 0 0,0
10.12.2018 22:00:00 8,6 7,1 6,9 12,7 14,1 - - - - - 1029,5 6 0 0,0
10.12.2018 21:00:00 9,3 7,2 7,9 12,7 14,1 - - - - - 1030,0 7 0 0,0
10.12.2018 20:00:00 10,6 7,1 9,5 12,7 14,1 - - - - - 1030,4 9 0 0,0
10.12.2018 19:00:00 12,0 7,7 11,5 12,6 14,1 - - - - - 1030,8 8 0 0,0
10.12.2018 18:00:00 12,4 7,7 12,0 12,6 14,1 - - - - - 1030,6 8 0 0,0
10.12.2018 17:00:00 12,6 7,7 12,5 12,5 14,1 - - - - - 1030,7 9 0 0,0
10.12.2018 16:00:00 13,8 5,9 15,7 12,4 14,1 - - - - - 1030,9 10 31 0,0
10.12.2018 15:00:00 14,0 7,1 15,7 12,3 14,1 - - - - - 1031,2 10 39 0,0
10.12.2018 14:00:00 14,1 6,7 14,8 12,2 14,1 - - - - - 1032,0 8 18 0,0
10.12.2018 13:00:00 14,5 9,1 15,3 12,2 14,1 - - - - - 1032,7 8 31 0,0
10.12.2018 12:00:00 13,5 9,7 13,5 12,2 14,1 - - - - - 1033,5 7 55 0,0
10.12.2018 11:00:00 11,0 9,3 9,7 12,2 14,1 - - - - - 1034,0 6 9 0,0
10.12.2018 10:00:00 9,4 8,9 8,2 12,3 14,1 - - - - - 1034,2 6 0 0,0
10.12.2018 09:00:00 8,7 8,1 7,7 12,3 14,1 - - - - - 1033,9 4,5 4 0,0
10.12.2018 08:00:00 8,7 8,1 7,8 12,3 14,1 - - - - - 1033,6 3,9 0 0,0
10.12.2018 07:00:00 8,8 8,2 7,5 12,4 14,1 - - - - - 1033,5 4,0 0 0,0
10.12.2018 06:00:00 9,1 8,0 7,6 12,4 14,1 - - - - - 1033,4 5 0 0,0
10.12.2018 05:00:00 9,9 8,8 9,3 12,4 14,1 - - - - - 1033,4 3,4 0 0,2
10.12.2018 04:00:00 9,8 8,4 9,2 12,4 14,1 - - - - - 1033,8 6 0 0,0
10.12.2018 03:00:00 10,3 8,6 9,3 12,4 14,1 - - - - - 1034,1 6 0 0,0
10.12.2018 02:00:00 10,2 8,6 9,2 12,5 14,1 - - - - - 1034,1 6 0 0,0
10.12.2018 01:00:00 10,0 8,1 9,3 12,5 14,1 - - - - - 1034,2 3,7 0 0,0
10.12.2018 00:00:00 10,9 8,3 9,7 12,6 14,1 - - - - - 1034,1 4,5 0 0,0
09.12.2018 23:00:00 11,5 8,0 9,0 12,6 14,1 - - - - - 1033,9 4,9 0 0,0
09.12.2018 22:00:00 10,6 7,8 9,1 12,6 14,1 - - - - - 1033,8 4,6 0 0,0
09.12.2018 21:00:00 10,8 7,7 9,4 12,6 14,1 - - - - - 1033,4 4,9 0 0,0
09.12.2018 20:00:00 12,5 8,4 11,3 12,7 14,1 - - - - - 1033,0 4,6 0 0,0
09.12.2018 19:00:00 12,3 8,0 11,8 12,7 14,1 - - - - - 1032,1 4,9 0 0,0
09.12.2018 18:00:00 12,5 9,3 12,1 12,6 14,1 - - - - - 1031,5 4,0 0 0,0
09.12.2018 17:00:00 12,6 9,1 11,3 12,6 14,1 - - - - - 1031,0 4,5 1 0,0
09.12.2018 16:00:00 12,7 9,0 11,0 12,6 14,1 - - - - - 1030,4 4,8 0 0,4
09.12.2018 15:00:00 14,2 9,6 14,2 12,5 14,1 - - - - - 1029,8 4,7 0 0,0
09.12.2018 14:00:00 14,3 9,1 14,4 12,5 14,1 - - - - - 1029,9 4,6 0 0,0
09.12.2018 13:00:00 14,2 8,8 14,2 12,5 14,1 - - - - - 1029,9 5 0 0,0
09.12.2018 12:00:00 14,2 9,8 12,8 12,5 14,1 - - - - - 1030,2 4,3 0 0,0

tt = Température de l'air
td = dewpoint
tt 5cm = Température de l'air 5cm
tt -20cm = Température de l'air -20cm
tt -100cm = Température de l'air -100cm
ff = Vitesse du vent
fx = gusts
dd = Direction du vent
ppp = reduced air pressure
vv = visibility
sd = Ensoleillement
rr = Quantités de précipitations

stations d'obs. à proximité